| time (UTC) | temp F | wind direction | speed MPH | gust MPH | rain 1hr in | rain 24hr in | rain mn in | humidity % | barometer mb |
| 20260505053033 | 70 | 264 | 0.0 | 0.0 | 0.00 | 1.38 | 0.16 | 57 | 1018.6 |
| 20260505052032 | 70 | 266 | 0.0 | 0.0 | 0.00 | 1.38 | 0.16 | 59 | 1018.5 |
| 20260505051023 | 69 | 266 | 0.0 | 0.0 | 0.00 | 1.38 | 0.16 | 59 | 1018.3 |
| 20260505041028 | 70 | 236 | 0.0 | 0.0 | 0.00 | 1.38 | 0.16 | 56 | 1018.4 |
| 20260505040024 | 70 | 229 | 0.0 | 0.0 | 0.00 | 1.38 | 0.16 | 56 | 1018.3 |
| 20260505035026 | 70 | 245 | 0.0 | 0.0 | 0.00 | 1.38 | 0.16 | 57 | 1018.2 |
| 20260505034022 | 69 | 254 | 0.0 | 0.0 | 0.00 | 1.38 | 0.16 | 58 | 1018.4 |
| 20260505033033 | 69 | 269 | 0.0 | 0.0 | 0.00 | 1.38 | 0.16 | 59 | 1018.3 |
| 20260505032027 | 69 | 269 | 0.0 | 0.0 | 0.00 | 1.38 | 0.16 | 58 | 1018.4 |
| 20260505031024 | 69 | 273 | 0.0 | 0.0 | 0.00 | 1.38 | 0.16 | 58 | 1018.6 |
| 20260505030020 | 69 | 242 | 0.0 | 0.0 | 0.00 | 1.38 | 0.16 | 60 | 1018.7 |
| 20260505025037 | 68 | 241 | 0.0 | 0.0 | 0.00 | 1.38 | 0.16 | 61 | 1018.9 |
| 20260505024028 | 68 | 274 | 0.0 | 0.0 | 0.00 | 1.38 | 0.16 | 62 | 1019.1 |
| 20260505023020 | 68 | 273 | 0.0 | 0.0 | 0.00 | 1.38 | 0.16 | 62 | 1019.2 |
| 20260505022037 | 68 | 273 | 0.0 | 0.0 | 0.00 | 1.38 | 0.16 | 67 | 1019.3 |
| 20260505021033 | 67 | 273 | 0.0 | 0.0 | 0.00 | 1.38 | 0.16 | 69 | 1019.4 |
| 20260505020025 | 68 | 271 | 0.0 | 0.0 | 0.00 | 1.38 | 0.16 | 70 | 1019.5 |
| 20260505015023 | 67 | 269 | 0.0 | 0.0 | 0.00 | 1.38 | 0.16 | 73 | 1019.5 |
| 20260505014020 | 67 | 270 | 0.0 | 0.0 | 0.00 | 1.38 | 0.16 | 72 | 1019.7 |
| 20260505013036 | 67 | 270 | 0.0 | 0.0 | 0.00 | 1.38 | 0.16 | 68 | 1019.9 |
| 20260505012030 | 67 | 274 | 0.0 | 0.0 | 0.00 | 1.38 | 0.16 | 67 | 1020.0 |
| 20260505011028 | 67 | 232 | 0.0 | 0.0 | 0.00 | 1.38 | 0.16 | 66 | 1020.2 |
| 20260505010049 | 67 | 237 | 0.0 | 0.0 | 0.00 | 1.38 | 0.16 | 65 | 1020.1 |
| 20260505005026 | 66 | 238 | 0.0 | 0.0 | 0.00 | 1.38 | 0.16 | 64 | 1020.3 |
| 20260505004019 | 66 | 242 | 0.0 | 0.0 | 0.00 | 1.38 | 0.16 | 66 | 1020.3 |
| 20260505003037 | 66 | 248 | 0.0 | 0.0 | 0.00 | 1.38 | 0.16 | 68 | 1020.4 |
| 20260505002030 | 65 | 233 | 0.0 | 0.0 | 0.00 | 1.38 | 0.16 | 71 | 1020.5 |
| 20260505001028 | 65 | 259 | 0.0 | 0.0 | 0.00 | 1.38 | 0.16 | 72 | 1020.6 |
| 20260505000021 | 65 | 224 | 0.0 | 0.0 | 0.04 | 1.38 | 0.16 | 73 | 1020.7 |
| 20260504235033 | 65 | 207 | 0.0 | 0.0 | 0.04 | 1.38 | 0.16 | 76 | 1020.6 |
| 20260504234022 | 65 | 205 | 0.0 | 0.0 | 0.04 | 1.38 | 0.16 | 77 | 1020.3 |
| 20260504233020 | 64 | 214 | 0.0 | 0.0 | 0.04 | 1.38 | 0.16 | 79 | 1020.5 |
| 20260504232037 | 64 | 212 | 0.0 | 0.0 | 0.04 | 1.38 | 0.16 | 80 | 1020.5 |
| 20260504231035 | 64 | 213 | 0.0 | 0.0 | 0.04 | 1.38 | 0.16 | 82 | 1020.7 |
| 20260504230056 | 64 | 360 | 0.0 | 0.0 | 0.00 | 1.34 | 0.15 | 85 | 1020.7 |
| 20260504225030 | 63 | 203 | 0.0 | 0.0 | 0.00 | 1.34 | 0.15 | 87 | 1020.5 |
| 20260504224045 | 63 | 209 | 0.0 | 0.0 | 0.00 | 1.34 | 0.15 | 93 | 1020.3 |
| 20260504223039 | 63 | 207 | 0.0 | 0.0 | 0.00 | 1.34 | 0.15 | 94 | 1020.1 |
| 20260504222019 | 64 | 219 | 0.0 | 0.0 | 0.00 | 1.34 | 0.15 | 96 | 1020.0 |
| 20260504221033 | 63 | 215 | 0.0 | 0.0 | 0.00 | 1.34 | 0.15 | 96 | 1019.9 |
| 20260504220030 | 63 | 222 | 0.0 | 0.0 | 0.00 | 1.34 | 0.15 | 96 | 1019.7 |
| 20260504215021 | 63 | 224 | 0.0 | 0.0 | 0.00 | 1.34 | 0.15 | 96 | 1019.5 |
| 20260504214039 | 63 | 223 | 0.0 | 0.0 | 0.00 | 1.34 | 0.15 | 96 | 1019.3 |
| 20260504213032 | 63 | 226 | 0.0 | 0.0 | 0.00 | 1.34 | 0.15 | 96 | 1019.1 |
| 20260504212026 | 63 | 226 | 0.0 | 0.0 | 0.00 | 1.34 | 0.15 | 96 | 1018.9 |
| 20260504211020 | 63 | 228 | 0.0 | 0.0 | 0.00 | 1.34 | 0.15 | 96 | 1018.7 |
| 20260504210036 | 64 | 231 | 0.0 | 0.0 | 0.00 | 1.34 | 0.15 | 96 | 1018.4 |
| 20260504205030 | 64 | 232 | 0.0 | 0.0 | 0.00 | 1.34 | 0.15 | 96 | 1018.7 |
| 20260504204023 | 64 | 236 | 0.0 | 0.0 | 0.00 | 1.34 | 0.15 | 96 | 1018.5 |
| 20260504203018 | 64 | 242 | 0.0 | 0.0 | 0.00 | 1.34 | 0.15 | 96 | 1018.3 |
| 20260504202033 | 64 | 253 | 0.0 | 0.0 | 0.00 | 1.34 | 0.15 | 96 | 1018.1 |
| 20260504201026 | 64 | 255 | 0.0 | 0.0 | 0.00 | 1.34 | 0.15 | 96 | 1017.9 |
| 20260504200019 | 64 | 255 | 0.0 | 0.0 | 0.00 | 1.34 | 0.15 | 96 | 1017.9 |
| 20260504195037 | 64 | 256 | 0.0 | 0.0 | 0.00 | 1.34 | 0.15 | 96 | 1017.8 |
| 20260504194054 | 64 | 267 | 0.0 | 0.0 | 0.00 | 1.34 | 0.15 | 96 | 1017.7 |
| 20260504193050 | 64 | 260 | 0.0 | 0.0 | 0.00 | 1.34 | 0.15 | 96 | 1017.5 |
| 20260504192048 | 64 | 267 | 0.0 | 0.0 | 0.00 | 1.34 | 0.15 | 96 | 1017.3 |
| 20260504191020 | 64 | 259 | 0.0 | 0.0 | 0.00 | 1.34 | 0.15 | 96 | 1017.3 |
| 20260504190037 | 64 | 268 | 0.0 | 0.0 | 0.00 | 1.34 | 0.15 | 96 | 1017.2 |
| 20260504185055 | 63 | 261 | 0.0 | 0.0 | 0.00 | 1.34 | 0.15 | 96 | 1017.1 |
| 20260504184027 | 64 | 262 | 0.0 | 0.0 | 0.00 | 1.34 | 0.15 | 96 | 1017.1 |
| 20260504183023 | 64 | 263 | 0.0 | 0.0 | 0.00 | 1.34 | 0.15 | 96 | 1017.1 |
| 20260504182039 | 64 | 265 | 0.0 | 0.0 | 0.00 | 1.34 | 0.15 | 96 | 1016.9 |
| 20260504181030 | 64 | 265 | 0.0 | 0.0 | 0.00 | 1.34 | 0.15 | 96 | 1016.7 |
| 20260504180024 | 64 | 265 | 0.0 | 0.0 | 0.00 | 1.34 | 0.15 | 96 | 1016.9 |
| 20260504175039 | 64 | 265 | 0.0 | 0.0 | 0.00 | 1.34 | 0.15 | 96 | 1017.0 |
| 20260504174034 | 64 | 265 | 0.0 | 0.0 | 0.04 | 1.34 | 0.15 | 96 | 1017.1 |
| 20260504173027 | 64 | 265 | 0.0 | 0.0 | 0.12 | 1.34 | 0.15 | 96 | 1016.8 |
| 20260504172043 | 64 | 265 | 0.0 | 0.0 | 0.31 | 1.34 | 0.15 | 96 | 1016.9 |
| 20260504171035 | 64 | 265 | 0.0 | 0.0 | 0.47 | 1.34 | 0.15 | 96 | 1017.0 |
| 20260504151020 | 65 | 263 | 0.0 | 0.0 | 0.00 | 0.59 | 0.00 | 95 | 1016.5 |
| 20260504141035 | 65 | 275 | 0.0 | 0.0 | 0.20 | 0.59 | 0.12 | 95 | 1016.4 |
| 20260504081027 | 71 | 63 | 0.0 | 0.0 | 0.00 | 0.00 | 0.00 | 88 | 1016.7 |